Home   Weather   Oxnard   Past weeks

Flag for USA Past Weather in Oxnard, California, USA — Yesterday and Last 2 Weeks

Now
69 °F

Sunny.


Feels Like: 69 °F
Forecast: 63 / 74 °F
Wind: 15 mph from West

Location: Oxnard Airport

Current Time: Aug 31, 2016 at 6:51:48 PM

Latest Report: Aug 31, 2016 at 5:51 PM


Visibility: 9 mi

Pressure: 29.83 "Hg

Humidity: 76%

Dew Point: 61 °F

Location of OxnardLocation

Past Weather in Oxnard — Graph

°F

Oxnard Temperature Yesterday

Maximum temperature yesterday: 76 °F (at 12:51 PM)
Minimum temperature yesterday: 62 °F (at 4:51 AM)
Average temperature yesterday: 69 °F

High & Low Weather Summary for the Past Weeks

 TemperatureHumidityPressure
High76 °F (Aug 30, 12:51 PM)100% (Aug 17, 4:51 AM)30.04 "Hg (Aug 17, 4:51 AM)
Low59 °F (Aug 28, 5:51 AM)59% (Aug 27, 1:51 PM)29.76 "Hg (Aug 30, 6:51 PM)
Average66 °F80%29.92 "Hg
* Reported Aug 16 5:51 PM — Aug 31 5:51 PM, Oxnard, Weather by CustomWeather, © 2016

Note: Actual official high and low records may vary slightly from our data, if they occured in-between our weather recording intervals... More about our weather records

Advertising

Oxnard Weather History for the Previous 24 Hours

Scroll right to see more
 ConditionsComfort  
Time TempWeatherWind HumidityBarometerVisibility
5:51 PM
Wed, Aug 31
69 °FSunny.15 mph76%29.83 "Hg9 mi
4:51 PM71 °FSunny.15 mph71%29.83 "Hg9 mi
3:51 PM72 °FSunny.16 mph68%29.84 "Hg9 mi
2:51 PM73 °FSunny.15 mph66%29.85 "Hg10 mi
1:51 PM73 °FSunny.15 mph64%29.86 "Hg10 mi
12:51 PM73 °FSunny.14 mph66%29.87 "Hg10 mi
11:51 AM72 °FSunny.12 mph68%29.88 "Hg10 mi
10:51 AM70 °FSunny.10 mph79%29.88 "Hg10 mi
9:51 AM70 °FSunny.9 mph76%29.87 "Hg10 mi
8:51 AM69 °FSunny.12 mph79%29.86 "Hg10 mi
7:51 AM67 °FSunny.7 mph85%29.84 "Hg7 mi
6:51 AM62 °FClear.3 mph83%29.84 "Hg9 mi
5:51 AM63 °FClear.3 mph81%29.82 "Hg10 mi
4:51 AM63 °FClear.3 mph84%29.82 "Hg10 mi
3:51 AM65 °FClear.No wind78%29.83 "Hg10 mi
2:51 AM64 °FClear.3 mph81%29.83 "Hg10 mi
1:51 AM66 °FClear.5 mph78%29.82 "Hg10 mi
12:51 AM66 °FClear.5 mph75%29.82 "Hg10 mi
11:51 PM
Tue, Aug 30
68 °FClear.No wind73%29.82 "Hg10 mi
10:51 PM68 °FClear.No wind76%29.81 "Hg10 mi
9:51 PM68 °FClear.No wind78%29.80 "Hg10 mi
8:51 PM67 °FClear.3 mph81%29.79 "Hg9 mi
7:51 PM67 °FSunny.7 mph81%29.77 "Hg9 mi
6:51 PM69 °FSunny.5 mph76%29.76 "Hg8 mi
Weather by CustomWeather, © 2016

See weather overviewHow to use our weather pages